Regional Weather Roundup
Issued by NWS

Home | Current Version | Previous Version | Graphics & Text | Print | Product List | Glossary On
Versions: 1 2 3 4 5 6 7 8 9 10 11 12 13 14 15 16 17 18 19 20 21 22 23 24 25 26 27 28 29 30 31 32 33 34 35 36 37 38 39 40 41 42 43 44 45 46 47 48 49 50
000
ASUS43 KDMX 242101
RWRIA

WEATHER ROUNDUP FOR IOWA
NATIONAL WEATHER SERVICE DES MOINES IA
400 PM CDT MON APR 24 2017

NOTE: "FAIR" INDICATES FEW OR NO CLOUDS BELOW 12,000 FEET WITH NO
SIGNIFICANT WEATHER AND/OR OBSTRUCTIONS TO VISIBILITY.

* - THESE STATIONS ARE NOT NWS STATIONS...THUS NOT UNDER NWS
QUALITY CONTROL.  THEY ALSO DO NOT REPORT WEATHER SUCH
AS PRECIPITATION OR FOG.

IAZ001>003-012>014-020>022-031>034-043>046-242200-
   NORTHWEST IOWA

CITY           SKY/WX    TMP DP  RH WIND       PRES   REMARKS
CARROLL *      CLOUDY    73  30  20 S29G39    29.58F
CHEROKEE *     CLOUDY    68  37  32 S18G28    29.55F
DENISON *      PTSUNNY   73  36  25 S24G38    29.57F
LE MARS *      CLOUDY    68  39  34 S21G30    29.53F
ORANGE CITY *  CLOUDY    70  39  32 S18G25    29.54F
SHELDON *      CLOUDY    66  36  32 S21       29.53F
SIOUX CITY     CLOUDY    69  40  34 S10       29.52F
SPENCER        CLOUDY    70  34  26 S23G33    29.57F
STORM LAKE *   CLOUDY    72  32  23 S28G36    29.57F
$$

IAZ055>058-069>071-079>083-090>094-242200-
   SOUTHWEST IOWA

CITY           SKY/WX    TMP DP  RH WIND       PRES   REMARKS
ATLANTIC *     MOSUNNY   73  36  25 S26G38    29.57F
AUDUBON *      CLOUDY    72  27  18 S21G30    29.59F
CLARINDA *     MOSUNNY   75  34  22 S24G32    29.60F
COUNCIL BLFS * CLOUDY    73  39  29 S22G35    29.56F
CRESTON *      PTSUNNY   73  28  19 S26G39    29.62F
HARLAN  *      CLOUDY    73  34  23 S26G43    29.59F
LAMONI         MOSUNNY   74  27  17 S17G39    29.62F
RED OAK *      MOSUNNY   73  36  25 S24G37    29.57F
SHENANDOAH *   MOSUNNY   75  36  23 S26G40    29.57F
$$

IAZ047>049-059>061-072>074-084-242200-
   CENTRAL IOWA

CITY           SKY/WX    TMP DP  RH WIND       PRES   REMARKS
AMES           SUNNY     73  31  21 S28G39    29.62F
ANKENY *       SUNNY     75  30  19 SE24G35   29.62F
BOONE *        SUNNY     73  25  16 S25G35    29.60F
CHARITON *     SUNNY     73  30  20 S22G38    29.64F
DES MOINES     CLOUDY    75  30  19 S24G37    29.62F
GRINNELL*      SUNNY     75  24  15 S24       29.67F
KNOXVILLE *    SUNNY     75  21  13 S24G37    29.62F
MARSHALLTOWN   SUNNY     74  27  17 S25G36    29.64F
NEWTON *       SUNNY     75  27  16 S28G37    29.63F
PELLA *        SUNNY     76  22  13 S22G29    29.66F
PERRY *          N/A     73  17  12 S28G36    29.60F
$$

IAZ004>006-015-016-023>025-035-036-242200-
   NORTH CENTRAL IOWA

CITY           SKY/WX    TMP DP  RH WIND       PRES   REMARKS
ALGONA *       CLOUDY    70  28  21 S32G40    29.59F
CLARION *      CLOUDY    72  27  18 S29G37    29.61F
ESTHERVILLE    CLOUDY    67  32  27 S23G30    29.58F
FORT DODGE *   PTSUNNY   70  28  21 S15G31    29.61F
MASON CITY     CLOUDY    71  26  18 S28G36    29.63F
FOREST CITY *  CLOUDY    68  27  21 S25G33    29.61F
WEBSTER CITY * CLOUDY    72  25  17 S26G38    29.58F
IOWA FALLS *     N/A     74  29  18 S24G40    29.65F HAZE
$$

IAZ007>011-017>019-026>030-037>042-050>054-066-242200-
   NORTHEAST IOWA

CITY           SKY/WX    TMP DP  RH WIND       PRES   REMARKS
CEDAR RAPIDS   SUNNY     75  28  17 SE20G29   29.72F
CHARLES CITY * CLOUDY    72  27  18 S22G31    29.65F
CLINTON *      CLOUDY    75  27  17 S17G23    29.78F
DECORAH *      MOSUNNY   70  27  19 S15G26    29.69F
DUBUQUE        CLOUDY    70  28  21 S17G30    29.77F
MONTICELLO *   MOSUNNY   75  23  14 SE21G33   29.73F
OELWEIN *      PTSUNNY   72  27  18 S23G31    29.70F
WATERLOO       CLOUDY    73  27  18 S21G31    29.66F
$$

IAZ064-065-067-068-078-242200-
   EAST CENTRAL IOWA

CITY           SKY/WX    TMP DP  RH WIND       PRES   REMARKS
DAVENPORT      MOSUNNY   76  25  15 S20       29.77F
IOWA CITY      CLOUDY    76  32  20 S18G25    29.74F
MUSCATINE *    SUNNY     77  27  15 S16G25    29.74F
QUAD CITIES    MOSUNNY   77  27  15 S10G23    29.75F
$$

IAZ062-063-075>077-085>089-095>099-242200-
   SOUTHEAST IOWA

CITY           SKY/WX    TMP DP  RH WIND       PRES   REMARKS
BURLINGTON     SUNNY     76  34  21 S15       29.75F
FAIRFIELD *    MOSUNNY   75  27  16 S20G26    29.72F
FORT MADISON * SUNNY     79  30  17 S15G21    29.76F
KEOKUK *       SUNNY     75  30  19 S13G18    29.74F
OSKALOOSA *      N/A     76  24  14 S23G31    29.68F
OTTUMWA        SUNNY     76  27  16 SE23G31   29.68F
WASHINGTON *   MOSUNNY   77  25  14 S15G28    29.74F
$$

ABBREVIATIONS USED IN REMARKS
   TC - TEMPERATURES IN CELSIUS
  WCI - WIND CHILL INDEX
   HX - HEAT INDEX
  VSB - VISIBILITY
$$





USA.gov is the U.S. government's official web portal to all federal, state and local government web resources and services.